TimeEDT,TemperatureF,Dew PointF,Humidity,Sea Level PressureIn,VisibilityMPH,Wind Direction,Wind SpeedMPH,Gust SpeedMPH,PrecipitationIn,Events,Conditions,WindDirDegrees,DateUTC
12:53 AM,53.1,44.1,71,29.75,10.0,Calm,Calm,-,N/A,,Clear,0,2012-10-18 04:53:00
1:53 AM,59.0,43.0,55,29.73,10.0,SE,5.8,-,N/A,,Clear,140,2012-10-18 05:53:00
2:53 AM,57.9,43.0,58,29.74,10.0,Calm,Calm,-,N/A,,Clear,0,2012-10-18 06:53:00
3:53 AM,59.0,43.0,55,29.74,10.0,SSE,9.2,-,N/A,,Scattered Clouds,160,2012-10-18 07:53:00
4:53 AM,60.1,42.1,51,29.73,10.0,South,9.2,17.3,N/A,,Scattered Clouds,170,2012-10-18 08:53:00
5:53 AM,60.1,43.0,53,29.73,10.0,SSE,9.2,-,N/A,,Partly Cloudy,160,2012-10-18 09:53:00
6:53 AM,55.9,46.0,69,29.78,10.0,SW,4.6,-,N/A,,Scattered Clouds,230,2012-10-18 10:53:00
7:53 AM,57.9,46.9,67,29.75,10.0,SSE,5.8,-,N/A,,Mostly Cloudy,160,2012-10-18 11:53:00
8:53 AM,61.0,48.0,62,29.71,10.0,SSE,4.6,-,N/A,,Scattered Clouds,150,2012-10-18 12:53:00
9:53 AM,64.9,50.0,58,29.72,10.0,South,6.9,-,N/A,,Scattered Clouds,180,2012-10-18 13:53:00
10:53 AM,69.1,52.0,54,29.73,10.0,WSW,8.1,19.6,N/A,,Scattered Clouds,250,2012-10-18 14:53:00
11:53 AM,71.1,53.1,53,29.72,10.0,SSW,13.8,21.9,N/A,,Scattered Clouds,210,2012-10-18 15:53:00
12:53 PM,73.0,54.0,51,29.70,10.0,SSE,5.8,-,N/A,,Scattered Clouds,160,2012-10-18 16:53:00
1:53 PM,77.0,51.1,40,29.65,10.0,South,12.7,27.6,N/A,,Scattered Clouds,190,2012-10-18 17:53:00
2:53 PM,75.0,54.0,48,29.64,10.0,WSW,8.1,-,0.00,,Mostly Cloudy,240,2012-10-18 18:53:00
3:53 PM,70.0,55.0,59,29.66,10.0,West,21.9,31.1,N/A,,Mostly Cloudy,270,2012-10-18 19:53:00
4:53 PM,66.9,55.0,66,29.69,10.0,SW,13.8,23.0,N/A,,Mostly Cloudy,230,2012-10-18 20:53:00
5:53 PM,66.0,54.0,65,29.70,10.0,SW,10.4,-,N/A,,Mostly Cloudy,220,2012-10-18 21:53:00
6:53 PM,66.9,46.0,47,29.68,10.0,South,8.1,25.3,N/A,,Mostly Cloudy,190,2012-10-18 22:53:00
7:53 PM,62.1,51.1,67,29.72,10.0,WNW,11.5,-,N/A,,Scattered Clouds,300,2012-10-18 23:53:00
8:53 PM,59.0,46.0,62,29.74,10.0,WNW,4.6,-,N/A,,Mostly Cloudy,290,2012-10-19 00:53:00
9:53 PM,57.0,48.0,72,29.76,10.0,SSW,3.5,-,N/A,,Mostly Cloudy,210,2012-10-19 01:53:00
10:53 PM,52.0,46.9,83,29.77,10.0,Calm,Calm,-,N/A,,Scattered Clouds,0,2012-10-19 02:53:00
11:53 PM,55.0,48.0,77,29.77,10.0,Calm,Calm,-,N/A,,Overcast,0,2012-10-19 03:53:00